Location: ??????
(55.8274°N, 37.9338°E)
Time: 04:32:44
(UTC+00:00)

NOSS 3-1 (C) - Pass Details

Date: 14 April 2024
Orbit: 652 x 1553 km, 63.4° (Epoch: 15 May)

Event Time Altitude Azimuth Distance (km) Brightness Sun altitude
Rises 23:59:34 0° 303° (WNW) 3,574 6.4 -17.5°
Reaches altitude 10° 00:01:54 10° 306° (NW) 2,744 5.8 -17.3°
Maximum altitude 00:08:27 69° 30° (NNE) 1,233 4.2 -16.7°
Drops below altitude 10° 00:16:40 10° 114° (ESE) 3,401 6.6 -15.9°
Sets 00:19:50 0° 117° (ESE) 4,483 7.2 -15.6°
